KI5NYZ Weather Reports


Display with metric or nautical units.
time (UTC)temp
F
wind
direction
speed
MPH
gust
MPH
rain 1hr
in
rain 24hr
in
rain mn
in
humidity
%
barometer
mb
20260510142525 73 104 2.0 4.0 0.00 0.01 0.00 58 1013.4
20260510141541 72 106 1.0 4.0 0.00 0.01 0.00 58 1013.0
20260510140522 72 88 3.0 6.0 0.00 0.01 0.00 59 1012.8
20260510135521 70 86 4.0 6.0 0.00 0.01 0.00 59 1012.8
20260510134519 69 88 4.0 7.0 0.00 0.01 0.00 59 1012.8
20260510133541 68 68 3.0 6.0 0.00 0.01 0.00 60 1013.1
20260510132520 65 55 4.0 7.0 0.00 0.01 0.00 62 1012.9
20260510131519 64 72 2.0 4.0 0.00 0.01 0.00 66 1012.5
20260510130519 63 66 1.0 3.0 0.00 0.01 0.00 69 1012.3
20260510125519 62 0 0.0 0.0 0.00 0.01 0.00 69 1012.0
20260510124521 63 60 1.0 3.0 0.00 0.01 0.00 71 1012.0
20260510123522 63 0 0.0 0.0 0.00 0.01 0.00 71 1011.6
20260510122520 62 141 0.0 2.0 0.00 0.01 0.00 72 1011.3
20260510121519 62 91 0.0 2.0 0.00 0.01 0.00 72 1011.2
20260510120520 61 126 0.0 2.0 0.00 0.01 0.00 71 1010.8
20260510115520 59 77 1.0 4.0 0.00 0.01 0.00 73 1010.7
20260510114520 59 68 3.0 4.0 0.00 0.01 0.00 75 1010.5
20260510113522 62 0 0.0 0.0 0.00 0.01 0.00 69 1010.1
20260510112525 63 208 1.0 3.0 0.00 0.01 0.00 69 1010.0
20260510111602 63 230 4.0 9.0 0.00 0.01 0.00 69 1010.0
20260510110540 63 230 4.0 6.0 0.00 0.01 0.00 68 1009.9
20260510105519 63 238 7.0 10.0 0.00 0.01 0.00 67 1010.0
20260510104519 63 238 8.0 12.0 0.00 0.01 0.00 67 1010.1
20260510103539 62 233 5.0 8.0 0.00 0.01 0.00 66 1009.9
20260510102519 63 208 2.0 4.0 0.00 0.01 0.00 65 1009.6
20260510101519 63 211 1.0 5.0 0.00 0.01 0.00 64 1009.6
20260510100520 64 208 1.0 4.0 0.00 0.01 0.00 63 1009.5
20260510095559 63 203 2.0 5.0 0.00 0.01 0.00 63 1009.6
20260510094522 64 234 0.0 2.0 0.00 0.01 0.00 61 1009.6
20260510093522 65 230 2.0 6.0 0.00 0.01 0.00 60 1009.5
20260510092520 65 232 2.0 7.0 0.00 0.01 0.00 58 1009.5
20260510091519 67 229 4.0 9.0 0.00 0.01 0.00 56 1009.6
20260510090520 68 234 4.0 6.0 0.00 0.01 0.00 54 1009.6
20260510085520 67 236 3.0 5.0 0.00 0.01 0.00 53 1009.6
20260510084520 67 235 3.0 6.0 0.00 0.01 0.00 54 1009.6
20260510083521 67 231 1.0 3.0 0.00 0.01 0.00 53 1009.5
20260510082538 67 233 1.0 5.0 0.00 0.01 0.00 52 1009.4
20260510081519 68 228 1.0 3.0 0.00 0.01 0.00 51 1009.2
20260510080519 69 237 2.0 4.0 0.00 0.01 0.00 49 1009.1
20260510075519 70 233 2.0 4.0 0.00 0.01 0.00 48 1009.2
20260510074540 70 233 2.0 5.0 0.00 0.01 0.00 47 1009.3
20260510073518 71 230 2.0 8.0 0.00 0.01 0.00 45 1009.3
20260510072520 71 224 4.0 6.0 0.00 0.01 0.00 44 1009.4
20260510071521 72 223 4.0 6.0 0.00 0.01 0.00 43 1009.3
20260510070519 72 232 6.0 13.0 0.00 0.01 0.00 42 1009.2
20260510065520 72 227 3.0 10.0 0.00 0.01 0.00 41 1009.2
20260510064620 72 225 4.0 13.0 0.00 0.01 0.00 40 1009.3
20260510063519 72 215 3.0 10.0 0.00 0.01 0.00 39 1009.3
20260510062519 72 213 3.0 13.0 0.00 0.01 0.00 39 1009.3
20260510061519 72 207 3.0 10.0 0.00 0.01 0.00 38 1009.3
20260510060520 72 205 2.0 7.0 0.00 0.01 0.00 38 1009.3
20260510055520 72 215 2.0 10.0 0.00 0.01 0.00 37 1009.3
20260510054520 72 196 2.0 9.0 0.00 0.01 0.00 36 1009.3
20260510053520 72 224 2.0 8.0 0.00 0.01 0.00 36 1009.3
20260510052520 72 203 2.0 5.0 0.00 0.01 0.00 35 1009.2
20260510051543 73 208 2.0 10.0 0.00 0.01 0.00 34 1009.2
20260510050521 73 201 2.0 6.0 0.00 0.01 0.00 33 1009.2
20260510045521 73 200 2.0 5.0 0.00 0.01 0.01 33 1009.2
20260510044521 73 207 3.0 8.0 0.00 0.01 0.01 31 1009.1
20260510043518 73 210 4.0 9.0 0.00 0.01 0.01 30 1009.2
20260510042518 73 204 4.0 8.0 0.00 0.01 0.01 30 1009.2
20260510041520 73 208 4.0 11.0 0.00 0.01 0.01 28 1009.2
20260510040519 74 209 4.0 12.0 0.00 0.01 0.01 27 1009.1
20260510035604 74 207 3.0 6.0 0.00 0.01 0.01 26 1009.1
20260510034519 73 221 4.0 6.0 0.00 0.01 0.01 25 1009.0
20260510033519 73 202 1.0 6.0 0.00 0.01 0.01 25 1008.9
20260510032519 73 207 1.0 4.0 0.00 0.01 0.01 25 1008.8
20260510031540 74 209 3.0 6.0 0.00 0.01 0.01 24 1008.7
20260510030520 75 198 3.0 6.0 0.00 0.01 0.01 22 1008.7
20260510025520 76 202 3.0 5.0 0.00 0.01 0.01 21 1008.6
20260510024521 77 202 3.0 6.0 0.00 0.01 0.01 20 1008.5
20260510023521 78 194 3.0 4.0 0.00 0.01 0.01 19 1008.4
20260510022521 79 189 0.0 2.0 0.00 0.01 0.01 18 1008.3
20260510021521 80 226 0.0 3.0 0.00 0.01 0.01 17 1008.2
20260510020528 81 230 1.0 4.0 0.00 0.01 0.01 16 1008.0
20260510015522 82 231 2.0 5.0 0.00 0.01 0.01 16 1007.8
20260510014521 84 232 1.0 2.0 0.00 0.01 0.01 16 1007.8
20260510013522 86 229 5.0 7.0 0.00 0.01 0.01 15 1007.7
20260510012522 88 232 6.0 10.0 0.00 0.01 0.01 14 1007.6
20260510011519 89 233 5.0 7.0 0.00 0.01 0.01 13 1007.5
20260510010519 91 240 6.0 9.0 0.00 0.01 0.01 12 1007.6
20260510005519 92 247 7.0 11.0 0.00 0.01 0.01 12 1007.5
20260510004519 92 244 7.0 11.0 0.00 0.01 0.01 12 1007.5
20260510003519 92 238 7.0 11.0 0.00 0.01 0.01 11 1007.5
20260510002545 93 248 7.0 11.0 0.00 0.01 0.01 11 1007.5
20260510001519 93 241 6.0 12.0 0.00 0.01 0.01 11 1007.6
20260510000520 94 235 7.0 13.0 0.00 0.01 0.01 11 1007.6
20260509235519 94 243 8.0 13.0 0.00 0.01 0.01 11 1007.8
20260509234540 94 242 5.0 9.0 0.00 0.01 0.01 11 1007.8
20260509233520 94 237 7.0 10.0 0.00 0.01 0.01 11 1007.8
20260509232520 94 271 6.0 10.0 0.00 0.01 0.01 11 1007.9
20260509231521 94 264 6.0 10.0 0.00 0.01 0.01 11 1007.9
20260509230701 94 257 6.0 11.0 0.00 0.01 0.01 11 1008.1
20260509225521 94 248 5.0 9.0 0.00 0.01 0.01 11 1008.2
20260509224541 94 266 7.0 10.0 0.00 0.01 0.01 11 1008.2
20260509223521 95 283 7.0 13.0 0.00 0.01 0.01 11 1008.2
20260509222542 95 269 7.0 14.0 0.00 0.01 0.01 11 1008.4
20260509221521 95 305 10.0 14.0 0.00 0.01 0.01 11 1008.4
20260509220521 95 269 6.0 12.0 0.00 0.01 0.01 11 1008.6
20260509215522 94 274 8.0 14.0 0.00 0.01 0.01 11 1008.6
20260509214558 94 251 8.0 15.0 0.00 0.01 0.01 11 1008.8
20260509213520 94 274 10.0 19.0 0.01 0.01 0.01 11 1008.9
20260509212520 94 277 7.0 14.0 0.00 0.00 0.00 12 1009.0
20260509211519 94 273 11.0 18.0 0.00 0.00 0.00 12 1009.2
20260509210519 94 279 10.0 18.0 0.00 0.00 0.00 12 1009.3
20260509205520 94 252 8.0 13.0 0.00 0.00 0.00 12 1009.6
20260509204524 94 267 10.0 20.0 0.00 0.00 0.00 12 1009.7
20260509203540 94 277 10.0 14.0 0.00 0.00 0.00 12 1009.8
20260509202520 94 265 9.0 14.0 0.00 0.00 0.00 12 1010.0
20260509201543 94 243 6.0 13.0 0.00 0.00 0.00 13 1010.2
20260509200601 93 232 6.0 11.0 0.00 0.00 0.00 13 1010.2
20260509195520 94 226 7.0 14.0 0.00 0.00 0.00 13 1010.3
20260509194528 93 234 7.0 14.0 0.00 0.00 0.00 13 1010.5
20260509193521 93 222 6.0 14.0 0.00 0.00 0.00 13 1010.6
20260509192520 92 230 5.0 9.0 0.00 0.00 0.00 14 1010.8
20260509191522 92 235 6.0 12.0 0.00 0.00 0.00 15 1010.9
20260509190522 91 241 9.0 18.0 0.00 0.00 0.00 15 1011.0
20260509185524 91 226 5.0 11.0 0.00 0.00 0.00 15 1011.1
20260509184522 91 240 9.0 12.0 0.00 0.00 0.00 16 1011.2
20260509183521 91 252 8.0 13.0 0.00 0.00 0.00 16 1011.3
20260509182519 90 228 6.0 13.0 0.00 0.00 0.00 18 1011.4
20260509181539 90 230 7.0 14.0 0.00 0.00 0.00 19 1011.6
20260509180518 90 256 9.0 13.0 0.00 0.00 0.00 17 1011.7
20260509175540 89 230 7.0 14.0 0.00 0.00 0.00 19 1011.9
20260509174539 89 246 9.0 16.0 0.00 0.00 0.00 18 1012.0
20260509173539 89 215 6.0 13.0 0.00 0.00 0.00 19 1012.1
20260509172520 88 219 5.0 13.0 0.00 0.00 0.00 19 1012.2
20260509171540 88 226 6.0 14.0 0.00 0.00 0.00 21 1012.4
20260509170524 87 195 6.0 12.0 0.00 0.00 0.00 21 1012.4
20260509165520 87 229 7.0 11.0 0.00 0.00 0.00 20 1012.5
20260509164521 86 218 5.0 11.0 0.00 0.00 0.00 21 1012.5
20260509163520 85 229 6.0 16.0 0.00 0.00 0.00 23 1012.5
20260509162521 85 226 6.0 14.0 0.00 0.00 0.00 25 1012.6
20260509161526 84 224 6.0 12.0 0.00 0.00 0.00 26 1012.7
20260509160522 84 217 6.0 12.0 0.00 0.00 0.00 26 1012.7
20260509155521 83 221 5.0 12.0 0.00 0.00 0.00 25 1012.7
20260509154522 82 224 5.0 13.0 0.00 0.00 0.00 28 1012.8
20260509153522 81 229 5.0 11.0 0.00 0.00 0.00 30 1012.7
20260509152521 80 211 4.0 9.0 0.00 0.00 0.00 33 1012.8
20260509151546 78 206 3.0 6.0 0.00 0.00 0.00 39 1012.9
20260509150519 76 212 3.0 7.0 0.00 0.00 0.00 43 1013.1
20260509145524 75 220 3.0 7.0 0.00 0.00 0.00 45 1013.1
20260509144520 74 239 3.0 10.0 0.00 0.00 0.00 47 1013.2
20260509143520 73 238 5.0 15.0 0.00 0.00 0.00 49 1013.3